Year,Month,Day,Hour,Minute,Value (Times are PST for windgust in km/hr)
2016,05,07,00,00,3.20
2016,05,07,00,01,4.80
2016,05,07,00,02,4.80
2016,05,07,00,03,3.20
2016,05,07,00,04,3.20
2016,05,07,00,05,1.60
2016,05,07,00,06,4.80
2016,05,07,00,07,4.80
2016,05,07,00,08,4.80
2016,05,07,00,09,3.20
2016,05,07,00,10,3.20
2016,05,07,00,11,4.80
2016,05,07,00,12,4.80
2016,05,07,00,13,4.80
2016,05,07,00,14,4.80
2016,05,07,00,15,3.20
2016,05,07,00,16,1.60
2016,05,07,00,17,1.60
2016,05,07,00,18,1.60
2016,05,07,00,19,4.80
2016,05,07,00,20,4.80
2016,05,07,00,21,3.20
2016,05,07,00,22,4.80
2016,05,07,00,23,3.20
2016,05,07,00,24,1.60
2016,05,07,00,25,3.20
2016,05,07,00,26,3.20
2016,05,07,00,27,3.20
2016,05,07,00,28,3.20
2016,05,07,00,29,3.20
2016,05,07,00,30,1.60
2016,05,07,00,31,1.60
2016,05,07,00,32,3.20
2016,05,07,00,33,3.20
2016,05,07,00,34,3.20
2016,05,07,00,35,3.20
2016,05,07,00,36,3.20
2016,05,07,00,37,3.20
2016,05,07,00,38,1.60
2016,05,07,00,39,1.60
2016,05,07,00,40,3.20
2016,05,07,00,41,3.20
2016,05,07,00,42,4.80
2016,05,07,00,43,4.80
2016,05,07,00,44,6.40
2016,05,07,00,45,4.80
2016,05,07,00,46,4.80
2016,05,07,00,47,4.80
2016,05,07,00,48,4.80
2016,05,07,00,49,4.80
2016,05,07,00,50,4.80
2016,05,07,00,51,4.80
2016,05,07,00,52,8.10
2016,05,07,00,53,6.40
2016,05,07,00,54,6.40
2016,05,07,00,55,4.80
2016,05,07,00,56,4.80
2016,05,07,00,57,6.40
2016,05,07,00,58,3.20
2016,05,07,00,59,4.80
2016,05,07,01,00,4.80
2016,05,07,01,01,4.80
2016,05,07,01,02,4.80
2016,05,07,01,03,4.80
2016,05,07,01,04,3.20
2016,05,07,01,05,3.20
2016,05,07,01,06,3.20
2016,05,07,01,07,3.20
2016,05,07,01,08,4.80
2016,05,07,01,09,4.80
2016,05,07,01,10,6.40
2016,05,07,01,11,6.40
2016,05,07,01,12,6.40
2016,05,07,01,13,6.40
2016,05,07,01,14,8.10
2016,05,07,01,15,4.80
2016,05,07,01,16,3.20
2016,05,07,01,17,1.60
2016,05,07,01,20,3.20
2016,05,07,01,21,3.20
2016,05,07,01,22,6.40
2016,05,07,01,23,6.40
2016,05,07,01,24,4.80
2016,05,07,01,25,4.80
2016,05,07,01,26,4.80
2016,05,07,01,27,4.80
2016,05,07,01,28,4.80
2016,05,07,01,29,6.40
2016,05,07,01,30,4.80
2016,05,07,01,31,6.40
2016,05,07,01,32,6.40
2016,05,07,01,33,4.80
2016,05,07,01,34,6.40
2016,05,07,01,35,4.80
2016,05,07,01,36,4.80
2016,05,07,01,37,4.80
2016,05,07,01,38,4.80
2016,05,07,01,39,3.20
2016,05,07,01,40,3.20
2016,05,07,01,41,3.20
2016,05,07,01,42,3.20
2016,05,07,01,43,3.20
2016,05,07,01,44,3.20
2016,05,07,01,45,3.20
2016,05,07,01,46,3.20
2016,05,07,01,47,4.80
2016,05,07,01,48,4.80
2016,05,07,01,49,6.40
2016,05,07,01,50,3.20
2016,05,07,01,51,3.20
2016,05,07,01,52,3.20
2016,05,07,01,53,6.40
2016,05,07,01,54,4.80
2016,05,07,01,55,3.20
2016,05,07,01,56,3.20
2016,05,07,01,57,4.80
2016,05,07,01,58,4.80
2016,05,07,01,59,3.20
2016,05,07,02,00,4.80
2016,05,07,02,01,1.60
2016,05,07,02,02,3.20
2016,05,07,02,03,1.60
2016,05,07,02,04,4.80
2016,05,07,02,05,4.80
2016,05,07,02,06,6.40
2016,05,07,02,07,4.80
2016,05,07,02,08,4.80
2016,05,07,02,09,6.40
2016,05,07,02,10,6.40
2016,05,07,02,11,4.80
2016,05,07,02,12,4.80
2016,05,07,02,13,6.40
2016,05,07,02,14,6.40
2016,05,07,02,15,4.80
2016,05,07,02,16,6.40
2016,05,07,02,17,8.10
2016,05,07,02,18,8.10
2016,05,07,02,19,4.80
2016,05,07,02,20,6.40
2016,05,07,02,21,6.40
2016,05,07,02,22,4.80
2016,05,07,02,23,3.20
2016,05,07,02,24,1.60
2016,05,07,02,25,1.60
2016,05,07,02,26,3.20
2016,05,07,02,27,1.60
2016,05,07,02,28,3.20
2016,05,07,02,29,3.20
2016,05,07,02,30,1.60
2016,05,07,02,31,1.60
2016,05,07,02,32,3.20
2016,05,07,02,33,3.20
2016,05,07,02,34,3.20
2016,05,07,02,35,4.80
2016,05,07,02,36,3.20
2016,05,07,02,37,6.40
2016,05,07,02,38,4.80
2016,05,07,02,39,4.80
2016,05,07,02,40,3.20
2016,05,07,02,41,4.80
2016,05,07,02,42,1.60
2016,05,07,02,43,3.20
2016,05,07,02,44,1.60
2016,05,07,02,45,3.20
2016,05,07,02,46,4.80
2016,05,07,02,47,6.40
2016,05,07,02,48,3.20
2016,05,07,02,49,4.80
2016,05,07,02,50,4.80
2016,05,07,02,51,4.80
2016,05,07,02,52,6.40
2016,05,07,02,53,6.40
2016,05,07,02,54,4.80
2016,05,07,02,55,4.80
2016,05,07,02,56,8.10
2016,05,07,02,57,8.10
2016,05,07,02,58,1.60
2016,05,07,02,59,3.20
2016,05,07,03,00,4.80
2016,05,07,03,01,6.40
2016,05,07,03,02,4.80
2016,05,07,03,03,4.80
2016,05,07,03,04,8.10
2016,05,07,03,05,6.40
2016,05,07,03,06,4.80
2016,05,07,03,07,8.10
2016,05,07,03,08,8.10
2016,05,07,03,09,6.40
2016,05,07,03,10,6.40
2016,05,07,03,11,6.40
2016,05,07,03,12,8.10
2016,05,07,03,13,6.40
2016,05,07,03,14,8.10
2016,05,07,03,15,8.10
2016,05,07,03,16,8.10
2016,05,07,03,17,8.10
2016,05,07,03,18,6.40
2016,05,07,03,19,6.40
2016,05,07,03,20,8.10
2016,05,07,03,21,8.10
2016,05,07,03,22,8.10
2016,05,07,03,23,8.10
2016,05,07,03,24,8.10
2016,05,07,03,25,8.10
2016,05,07,03,26,6.40
2016,05,07,03,27,6.40
2016,05,07,03,28,6.40
2016,05,07,03,29,6.40
2016,05,07,03,30,6.40
2016,05,07,03,31,6.40
2016,05,07,03,32,3.20
2016,05,07,03,33,6.40
2016,05,07,03,34,4.80
2016,05,07,03,35,4.80
2016,05,07,03,36,4.80
2016,05,07,03,37,3.20
2016,05,07,03,38,4.80
2016,05,07,03,39,4.80
2016,05,07,03,40,8.10
2016,05,07,03,41,3.20
2016,05,07,03,42,6.40
2016,05,07,03,43,8.10
2016,05,07,03,44,6.40
2016,05,07,03,45,3.20
2016,05,07,03,46,4.80
2016,05,07,03,47,3.20
2016,05,07,03,48,4.80
2016,05,07,03,49,3.20
2016,05,07,03,50,3.20
2016,05,07,03,51,8.10
2016,05,07,03,52,4.80
2016,05,07,03,53,4.80
2016,05,07,03,54,4.80
2016,05,07,03,55,3.20
2016,05,07,03,56,6.40
2016,05,07,03,57,1.60
2016,05,07,03,58,6.40
2016,05,07,03,59,3.20
2016,05,07,04,00,4.80
2016,05,07,04,01,3.20
2016,05,07,04,02,4.80
2016,05,07,04,03,4.80
2016,05,07,04,04,3.20
2016,05,07,04,06,1.60
2016,05,07,04,10,1.60
2016,05,07,04,11,4.80
2016,05,07,04,12,6.40
2016,05,07,04,13,4.80
2016,05,07,04,14,4.80
2016,05,07,04,15,4.80
2016,05,07,04,16,6.40
2016,05,07,04,17,3.20
2016,05,07,04,18,4.80
2016,05,07,04,19,4.80
2016,05,07,04,20,4.80
2016,05,07,04,22,1.60
2016,05,07,04,23,1.60
2016,05,07,04,24,3.20
2016,05,07,04,25,4.80
2016,05,07,04,26,1.60
2016,05,07,04,27,3.20
2016,05,07,04,28,3.20
2016,05,07,04,29,4.80
2016,05,07,04,30,3.20
2016,05,07,04,31,3.20
2016,05,07,04,34,1.60
2016,05,07,04,35,3.20
2016,05,07,04,36,3.20
2016,05,07,04,37,6.40
2016,05,07,04,38,8.10
2016,05,07,04,39,6.40
2016,05,07,04,40,6.40
2016,05,07,04,41,8.10
2016,05,07,04,42,6.40
2016,05,07,04,43,6.40
2016,05,07,04,44,8.10
2016,05,07,04,45,8.10
2016,05,07,04,46,9.60
2016,05,07,04,47,9.60
2016,05,07,04,48,8.10
2016,05,07,04,49,8.10
2016,05,07,04,50,6.40
2016,05,07,04,51,8.10
2016,05,07,04,52,8.10
2016,05,07,04,53,6.40
2016,05,07,04,54,4.80
2016,05,07,04,55,4.80
2016,05,07,04,56,3.20
2016,05,07,04,57,4.80
2016,05,07,04,58,4.80
2016,05,07,04,59,4.80
2016,05,07,05,00,3.20
2016,05,07,05,01,4.80
2016,05,07,05,02,4.80
2016,05,07,05,03,4.80
2016,05,07,05,04,3.20
2016,05,07,05,05,3.20
2016,05,07,05,06,3.20
2016,05,07,05,07,1.60
2016,05,07,05,08,3.20
2016,05,07,05,09,3.20
2016,05,07,05,10,4.80
2016,05,07,05,11,1.60
2016,05,07,05,12,1.60
2016,05,07,05,13,1.60
2016,05,07,05,14,4.80
2016,05,07,05,15,3.20
2016,05,07,05,16,4.80
2016,05,07,05,17,3.20
2016,05,07,05,18,3.20
2016,05,07,05,19,4.80
2016,05,07,05,20,3.20
2016,05,07,05,21,1.60
2016,05,07,05,31,3.20
2016,05,07,05,32,4.80
2016,05,07,05,33,6.40
2016,05,07,05,34,6.40
2016,05,07,05,35,6.40
2016,05,07,05,36,6.40
2016,05,07,05,37,6.40
2016,05,07,05,38,4.80
2016,05,07,05,39,3.20
2016,05,07,05,40,3.20
2016,05,07,05,41,3.20
2016,05,07,05,42,4.80
2016,05,07,05,43,3.20
2016,05,07,05,44,4.80
2016,05,07,05,45,4.80
2016,05,07,05,46,6.40
2016,05,07,06,05,1.60
2016,05,07,06,06,1.60
2016,05,07,06,10,1.60
2016,05,07,06,11,1.60
2016,05,07,06,12,1.60
2016,05,07,06,13,1.60
2016,05,07,06,39,1.60
2016,05,07,06,40,1.60
2016,05,07,06,41,1.60
2016,05,07,06,42,1.60
2016,05,07,06,43,3.20
2016,05,07,06,44,3.20
2016,05,07,06,45,1.60
2016,05,07,06,51,1.60
2016,05,07,06,53,1.60
2016,05,07,06,54,1.60
2016,05,07,06,55,1.60
2016,05,07,06,56,1.60
2016,05,07,06,59,1.60
2016,05,07,07,00,1.60
2016,05,07,07,01,3.20
2016,05,07,07,02,3.20
2016,05,07,07,03,3.20
2016,05,07,07,04,3.20
2016,05,07,07,05,1.60
2016,05,07,07,06,1.60
2016,05,07,07,07,1.60
2016,05,07,07,08,1.60
2016,05,07,07,09,3.20
2016,05,07,07,10,3.20
2016,05,07,07,11,1.60
2016,05,07,07,13,1.60
2016,05,07,07,14,4.80
2016,05,07,07,15,3.20
2016,05,07,07,16,4.80
2016,05,07,07,17,4.80
2016,05,07,07,18,6.40
2016,05,07,07,19,4.80
2016,05,07,07,20,1.60
2016,05,07,07,21,4.80
2016,05,07,07,22,3.20
2016,05,07,07,23,1.60
2016,05,07,07,24,1.60
2016,05,07,07,25,3.20
2016,05,07,07,26,3.20
2016,05,07,07,27,3.20
2016,05,07,07,28,6.40
2016,05,07,07,29,6.40
2016,05,07,07,30,6.40
2016,05,07,07,31,4.80
2016,05,07,07,32,4.80
2016,05,07,07,33,4.80
2016,05,07,07,34,3.20
2016,05,07,07,35,3.20
2016,05,07,07,36,3.20
2016,05,07,07,37,3.20
2016,05,07,07,38,1.60
2016,05,07,07,39,3.20
2016,05,07,07,40,1.60
2016,05,07,07,41,1.60
2016,05,07,07,42,1.60
2016,05,07,07,43,4.80
2016,05,07,07,44,3.20
2016,05,07,07,45,3.20
2016,05,07,07,46,6.40
2016,05,07,07,47,8.10
2016,05,07,07,48,6.40
2016,05,07,07,49,9.60
2016,05,07,07,50,8.10
2016,05,07,07,51,6.40
2016,05,07,07,52,6.40
2016,05,07,07,53,8.10
2016,05,07,07,54,6.40
2016,05,07,07,55,9.60
2016,05,07,07,56,9.60
2016,05,07,07,57,6.40
2016,05,07,07,58,4.80
2016,05,07,07,59,4.80
2016,05,07,08,00,6.40
2016,05,07,08,01,6.40
2016,05,07,08,02,9.60
2016,05,07,08,03,6.40
2016,05,07,08,04,9.60
2016,05,07,08,05,8.10
2016,05,07,08,06,9.60
2016,05,07,08,07,9.60
2016,05,07,08,08,6.40
2016,05,07,08,09,6.40
2016,05,07,08,10,4.80
2016,05,07,08,11,8.10
2016,05,07,08,12,6.40
2016,05,07,08,13,8.10
2016,05,07,08,14,8.10
2016,05,07,08,15,4.80
2016,05,07,08,16,8.10
2016,05,07,08,17,8.10
2016,05,07,08,18,8.10
2016,05,07,08,19,9.60
2016,05,07,08,20,8.10
2016,05,07,08,21,8.10
2016,05,07,08,22,6.40
2016,05,07,08,23,6.40
2016,05,07,08,24,6.40
2016,05,07,08,25,6.40
2016,05,07,08,26,8.10
2016,05,07,08,27,4.80
2016,05,07,08,28,6.40
2016,05,07,08,29,6.40
2016,05,07,08,30,11.30
2016,05,07,08,31,12.90
2016,05,07,08,32,12.90
2016,05,07,08,33,12.90
2016,05,07,08,34,9.60
2016,05,07,08,35,6.40
2016,05,07,08,36,11.30
2016,05,07,08,37,11.30
2016,05,07,08,38,11.30
2016,05,07,08,39,11.30
2016,05,07,08,40,9.60
2016,05,07,08,41,14.50
2016,05,07,08,42,12.90
2016,05,07,08,43,9.60
2016,05,07,08,44,9.60
2016,05,07,08,45,9.60
2016,05,07,08,46,9.60
2016,05,07,08,47,11.30
2016,05,07,08,48,11.30
2016,05,07,08,49,12.90
2016,05,07,08,50,11.30
2016,05,07,08,51,8.10
2016,05,07,08,52,8.10
2016,05,07,08,53,9.60
2016,05,07,08,54,8.10
2016,05,07,08,55,9.60
2016,05,07,08,56,11.30
2016,05,07,08,57,8.10
2016,05,07,08,58,8.10
2016,05,07,08,59,12.90
2016,05,07,09,00,9.60
2016,05,07,09,01,8.10
2016,05,07,09,02,9.60
2016,05,07,09,03,9.60
2016,05,07,09,04,8.10
2016,05,07,09,05,8.10
2016,05,07,09,06,9.60
2016,05,07,09,07,6.40
2016,05,07,09,08,8.10
2016,05,07,09,09,8.10
2016,05,07,09,10,12.90
2016,05,07,09,11,8.10
2016,05,07,09,12,9.60
2016,05,07,09,13,8.10
2016,05,07,09,14,8.10
2016,05,07,09,15,9.60
2016,05,07,09,16,11.30
2016,05,07,09,17,9.60
2016,05,07,09,18,8.10
2016,05,07,09,19,9.60
2016,05,07,09,20,11.30
2016,05,07,09,21,9.60
2016,05,07,09,22,9.60
2016,05,07,09,23,9.60
2016,05,07,09,24,6.40
2016,05,07,09,25,11.30
2016,05,07,09,26,9.60
2016,05,07,09,27,11.30
2016,05,07,09,28,9.60
2016,05,07,09,29,9.60
2016,05,07,09,30,12.90
2016,05,07,09,31,12.90
2016,05,07,09,32,4.80
2016,05,07,09,33,8.10
2016,05,07,09,34,6.40
2016,05,07,09,35,12.90
2016,05,07,09,36,11.30
2016,05,07,09,37,12.90
2016,05,07,09,38,17.70
2016,05,07,09,39,17.70
2016,05,07,09,40,14.50
2016,05,07,09,41,16.10
2016,05,07,09,42,20.90
2016,05,07,09,43,16.10
2016,05,07,09,44,16.10
2016,05,07,09,45,19.30
2016,05,07,09,46,22.50
2016,05,07,09,47,20.90
2016,05,07,09,48,17.70
2016,05,07,09,49,17.70
2016,05,07,09,50,16.10
2016,05,07,09,51,25.70
2016,05,07,09,52,24.20
2016,05,07,09,53,22.50
2016,05,07,09,54,16.10
2016,05,07,09,55,20.90
2016,05,07,09,56,19.30
2016,05,07,09,57,19.30
2016,05,07,09,58,25.70
2016,05,07,09,59,20.90
2016,05,07,10,00,22.50
2016,05,07,10,01,16.10
2016,05,07,10,02,16.10
2016,05,07,10,03,17.70
2016,05,07,10,04,17.70
2016,05,07,10,05,17.70
2016,05,07,10,06,22.50
2016,05,07,10,07,25.70
2016,05,07,10,08,12.90
2016,05,07,10,09,22.50
2016,05,07,10,10,19.30
2016,05,07,10,11,20.90
2016,05,07,10,12,17.70
2016,05,07,10,13,22.50
2016,05,07,10,14,14.50
2016,05,07,10,15,12.90
2016,05,07,10,16,20.90
2016,05,07,10,17,17.70
2016,05,07,10,18,12.90
2016,05,07,10,19,8.10
2016,05,07,10,20,9.60
2016,05,07,10,21,9.60
2016,05,07,10,22,9.60
2016,05,07,10,23,20.90
2016,05,07,10,24,19.30
2016,05,07,10,25,17.70
2016,05,07,10,26,17.70
2016,05,07,10,27,14.50
2016,05,07,10,28,11.30
2016,05,07,10,29,16.10
2016,05,07,10,30,14.50
2016,05,07,10,31,19.30
2016,05,07,10,32,16.10
2016,05,07,10,33,12.90
2016,05,07,10,34,14.50
2016,05,07,10,35,12.90
2016,05,07,10,36,16.10
2016,05,07,10,37,14.50
2016,05,07,10,38,16.10
2016,05,07,10,39,14.50
2016,05,07,10,40,12.90
2016,05,07,10,41,11.30
2016,05,07,10,42,8.10
2016,05,07,10,43,11.30
2016,05,07,10,44,16.10
2016,05,07,10,45,14.50
2016,05,07,10,46,14.50
2016,05,07,10,47,16.10
2016,05,07,10,48,16.10
2016,05,07,10,49,12.90
2016,05,07,10,50,11.30
2016,05,07,10,51,12.90
2016,05,07,10,52,11.30
2016,05,07,10,53,11.30
2016,05,07,10,54,12.90
2016,05,07,10,55,16.10
2016,05,07,10,56,16.10
2016,05,07,10,57,6.40
2016,05,07,10,58,12.90
2016,05,07,10,59,19.30
2016,05,07,11,00,19.30
2016,05,07,11,01,14.50
2016,05,07,11,02,12.90
2016,05,07,11,03,16.10
2016,05,07,11,04,14.50
2016,05,07,11,05,14.50
2016,05,07,11,06,16.10
2016,05,07,11,07,11.30
2016,05,07,11,08,6.40
2016,05,07,11,09,17.70
2016,05,07,11,10,20.90
2016,05,07,11,11,20.90
2016,05,07,11,12,19.30
2016,05,07,11,13,22.50
2016,05,07,11,14,14.50
2016,05,07,11,15,12.90
2016,05,07,11,16,19.30
2016,05,07,11,17,16.10
2016,05,07,11,18,14.50
2016,05,07,11,19,19.30
2016,05,07,11,20,12.90
2016,05,07,11,21,20.90
2016,05,07,11,22,14.50
2016,05,07,11,23,14.50
2016,05,07,11,24,16.10
2016,05,07,11,25,12.90
2016,05,07,11,26,17.70
2016,05,07,11,27,16.10
2016,05,07,11,28,22.50
2016,05,07,11,29,24.20
2016,05,07,11,30,16.10
2016,05,07,11,31,20.90
2016,05,07,11,32,24.20
2016,05,07,11,33,25.70
2016,05,07,11,34,24.20
2016,05,07,11,35,20.90
2016,05,07,11,36,20.90
2016,05,07,11,37,17.70
2016,05,07,11,38,25.70
2016,05,07,11,39,24.20
2016,05,07,11,40,17.70
2016,05,07,11,41,24.20
2016,05,07,11,42,20.90
2016,05,07,11,43,24.20
2016,05,07,11,44,22.50
2016,05,07,11,45,14.50
2016,05,07,11,46,20.90
2016,05,07,11,47,25.70
2016,05,07,11,48,14.50
2016,05,07,11,49,17.70
2016,05,07,11,50,19.30
2016,05,07,11,51,29.00
2016,05,07,11,52,24.20
2016,05,07,11,53,20.90
2016,05,07,11,54,27.40
2016,05,07,11,55,24.20
2016,05,07,11,56,24.20
2016,05,07,11,57,25.70
2016,05,07,11,58,30.60
2016,05,07,11,59,20.90
2016,05,07,12,00,24.20
2016,05,07,12,01,19.30
2016,05,07,12,02,29.00
2016,05,07,12,03,22.50
2016,05,07,12,04,25.70
2016,05,07,12,05,24.20
2016,05,07,12,06,25.70
2016,05,07,12,07,24.20
2016,05,07,12,08,24.20
2016,05,07,12,09,22.50
2016,05,07,12,10,20.90
2016,05,07,12,11,24.20
2016,05,07,12,12,25.70
2016,05,07,12,13,19.30
2016,05,07,12,14,22.50
2016,05,07,12,15,27.40
2016,05,07,12,16,27.40
2016,05,07,12,17,20.90
2016,05,07,12,18,25.70
2016,05,07,12,19,30.60
2016,05,07,12,20,22.50
2016,05,07,12,21,17.70
2016,05,07,12,22,17.70
2016,05,07,12,23,19.30
2016,05,07,12,24,22.50
2016,05,07,12,25,19.30
2016,05,07,12,26,27.40
2016,05,07,12,27,25.70
2016,05,07,12,28,25.70
2016,05,07,12,29,20.90
2016,05,07,12,30,32.20
2016,05,07,12,31,24.20
2016,05,07,12,32,16.10
2016,05,07,12,33,20.90
2016,05,07,12,34,22.50
2016,05,07,12,35,14.50
2016,05,07,12,36,19.30
2016,05,07,12,37,24.20
2016,05,07,12,38,19.30
2016,05,07,12,39,19.30
2016,05,07,12,40,24.20
2016,05,07,12,41,29.00
2016,05,07,12,42,30.60
2016,05,07,12,43,27.40
2016,05,07,12,44,20.90
2016,05,07,12,45,29.00
2016,05,07,12,46,24.20
2016,05,07,12,47,30.60
2016,05,07,12,48,25.70
2016,05,07,12,49,20.90
2016,05,07,12,50,20.90
2016,05,07,12,51,19.30
2016,05,07,12,52,20.90
2016,05,07,12,53,20.90
2016,05,07,12,54,17.70
2016,05,07,12,55,16.10
2016,05,07,12,56,20.90
2016,05,07,12,57,22.50
2016,05,07,12,58,14.50
2016,05,07,12,59,12.90
2016,05,07,13,00,20.90
2016,05,07,13,01,22.50
2016,05,07,13,02,37.00
2016,05,07,13,03,29.00
2016,05,07,13,04,17.70
2016,05,07,13,05,22.50
2016,05,07,13,06,22.50
2016,05,07,13,07,16.10
2016,05,07,13,08,16.10
2016,05,07,13,09,17.70
2016,05,07,13,10,11.30
2016,05,07,13,11,22.50
2016,05,07,13,12,24.20
2016,05,07,13,13,16.10
2016,05,07,13,14,20.90
2016,05,07,13,15,27.40
2016,05,07,13,16,16.10
2016,05,07,13,17,16.10
2016,05,07,13,18,29.00
2016,05,07,13,19,33.80
2016,05,07,13,20,20.90
2016,05,07,13,21,24.20
2016,05,07,13,22,25.70
2016,05,07,13,23,24.20
2016,05,07,13,24,27.40
2016,05,07,13,25,27.40
2016,05,07,13,26,25.70
2016,05,07,13,27,24.20
2016,05,07,13,28,25.70
2016,05,07,13,29,33.80
2016,05,07,13,30,30.60
2016,05,07,13,31,38.60
2016,05,07,13,32,22.50
2016,05,07,13,33,27.40
2016,05,07,13,34,22.50
2016,05,07,13,35,29.00
2016,05,07,13,36,37.00
2016,05,07,13,37,32.20
2016,05,07,13,38,27.40
2016,05,07,13,39,30.60
2016,05,07,13,40,24.20
2016,05,07,13,41,24.20
2016,05,07,13,42,24.20
2016,05,07,13,43,24.20
2016,05,07,13,44,32.20
2016,05,07,13,45,24.20
2016,05,07,13,46,24.20
2016,05,07,13,47,25.70
2016,05,07,13,48,38.60
2016,05,07,13,49,27.40
2016,05,07,13,50,24.20
2016,05,07,13,51,32.20
2016,05,07,13,52,33.80
2016,05,07,13,53,24.20
2016,05,07,13,54,27.40
2016,05,07,13,55,27.40
2016,05,07,13,56,35.40
2016,05,07,13,57,20.90
2016,05,07,13,58,35.40
2016,05,07,13,59,32.20
2016,05,07,14,00,38.60
2016,05,07,14,01,22.50
2016,05,07,14,02,24.20
2016,05,07,14,03,25.70
2016,05,07,14,04,20.90
2016,05,07,14,05,20.90
2016,05,07,14,06,30.60
2016,05,07,14,07,37.00
2016,05,07,14,08,29.00
2016,05,07,14,09,27.40
2016,05,07,14,10,25.70
2016,05,07,14,11,16.10
2016,05,07,14,12,24.20
2016,05,07,14,13,32.20
2016,05,07,14,14,32.20
2016,05,07,14,15,24.20
2016,05,07,14,16,24.20
2016,05,07,14,17,22.50
2016,05,07,14,18,27.40
2016,05,07,14,19,14.50
2016,05,07,14,20,22.50
2016,05,07,14,21,30.60
2016,05,07,14,22,16.10
2016,05,07,14,23,22.50
2016,05,07,14,24,19.30
2016,05,07,14,25,24.20
2016,05,07,14,26,35.40
2016,05,07,14,27,25.70
2016,05,07,14,28,25.70
2016,05,07,14,29,25.70
2016,05,07,14,30,22.50
2016,05,07,14,31,20.90
2016,05,07,14,32,38.60
2016,05,07,14,33,22.50
2016,05,07,14,34,19.30
2016,05,07,14,35,46.70
2016,05,07,14,36,20.90
2016,05,07,14,37,32.20
2016,05,07,14,38,27.40
2016,05,07,14,39,29.00
2016,05,07,14,40,37.00
2016,05,07,14,41,33.80
2016,05,07,14,42,35.40
2016,05,07,14,43,33.80
2016,05,07,14,44,22.50
2016,05,07,14,45,20.90
2016,05,07,14,46,29.00
2016,05,07,14,47,38.60
2016,05,07,14,48,48.30
2016,05,07,14,49,38.60
2016,05,07,14,50,37.00
2016,05,07,14,51,30.60
2016,05,07,14,52,32.20
2016,05,07,14,53,40.20
2016,05,07,14,54,35.40
2016,05,07,14,55,35.40
2016,05,07,14,56,38.60
2016,05,07,14,57,30.60
2016,05,07,14,58,41.80
2016,05,07,14,59,32.20
2016,05,07,15,00,27.40
2016,05,07,15,01,35.40
2016,05,07,15,02,16.10
2016,05,07,15,03,29.00
2016,05,07,15,04,20.90
2016,05,07,15,05,38.60
2016,05,07,15,06,27.40
2016,05,07,15,07,37.00
2016,05,07,15,08,22.50
2016,05,07,15,09,12.90
2016,05,07,15,10,12.90
2016,05,07,15,11,12.90
2016,05,07,15,12,24.20
2016,05,07,15,13,38.60
2016,05,07,15,14,38.60
2016,05,07,15,15,41.80
2016,05,07,15,16,38.60
2016,05,07,15,17,53.10
2016,05,07,15,18,40.20
2016,05,07,15,19,32.20
2016,05,07,15,20,38.60
2016,05,07,15,21,33.80
2016,05,07,15,22,48.30
2016,05,07,15,23,27.40
2016,05,07,15,24,38.60
2016,05,07,15,25,40.20
2016,05,07,15,26,41.80
2016,05,07,15,27,46.70
2016,05,07,15,28,43.50
2016,05,07,15,29,43.50
2016,05,07,15,30,43.50
2016,05,07,15,31,45.10
2016,05,07,15,32,48.30
2016,05,07,15,33,49.90
2016,05,07,15,34,38.60
2016,05,07,15,35,45.10
2016,05,07,15,36,32.20
2016,05,07,15,37,45.10
2016,05,07,15,38,43.50
2016,05,07,15,39,54.70
2016,05,07,15,40,37.00
2016,05,07,15,41,41.80
2016,05,07,15,42,30.60
2016,05,07,15,43,37.00
2016,05,07,15,44,22.50
2016,05,07,15,45,25.70
2016,05,07,15,46,40.20
2016,05,07,15,47,32.20
2016,05,07,15,48,38.60
2016,05,07,15,49,35.40
2016,05,07,15,50,40.20
2016,05,07,15,51,38.60
2016,05,07,15,52,43.50
2016,05,07,15,53,38.60
2016,05,07,15,54,40.20
2016,05,07,15,55,33.80
2016,05,07,15,56,43.50
2016,05,07,15,57,46.70
2016,05,07,15,58,35.40
2016,05,07,15,59,38.60
2016,05,07,16,00,32.20
2016,05,07,16,01,27.40
2016,05,07,16,02,48.30
2016,05,07,16,03,37.00
2016,05,07,16,04,24.20
2016,05,07,16,05,25.70
2016,05,07,16,06,29.00
2016,05,07,16,07,32.20
2016,05,07,16,08,37.00
2016,05,07,16,09,20.90
2016,05,07,16,10,29.00
2016,05,07,16,11,16.10
2016,05,07,16,12,30.60
2016,05,07,16,13,32.20
2016,05,07,16,14,32.20
2016,05,07,16,15,30.60
2016,05,07,16,16,25.70
2016,05,07,16,17,32.20
2016,05,07,16,18,25.70
2016,05,07,16,19,32.20
2016,05,07,16,20,27.40
2016,05,07,16,21,24.20
2016,05,07,16,22,27.40
2016,05,07,16,23,29.00
2016,05,07,16,24,29.00
2016,05,07,16,25,35.40
2016,05,07,16,26,27.40
2016,05,07,16,27,24.20
2016,05,07,16,28,35.40
2016,05,07,16,29,45.10
2016,05,07,16,30,27.40
2016,05,07,16,31,32.20
2016,05,07,16,32,33.80
2016,05,07,16,33,25.70
2016,05,07,16,34,35.40
2016,05,07,16,35,25.70
2016,05,07,16,36,35.40
2016,05,07,16,37,19.30
2016,05,07,16,38,25.70
2016,05,07,16,39,29.00
2016,05,07,16,40,37.00
2016,05,07,16,41,33.80
2016,05,07,16,42,29.00
2016,05,07,16,43,19.30
2016,05,07,16,44,27.40
2016,05,07,16,45,17.70
2016,05,07,16,46,27.40
2016,05,07,16,47,35.40
2016,05,07,16,48,30.60
2016,05,07,16,49,24.20
2016,05,07,16,50,20.90
2016,05,07,16,51,22.50
2016,05,07,16,52,20.90
2016,05,07,16,53,27.40
2016,05,07,16,54,22.50
2016,05,07,16,55,20.90
2016,05,07,16,56,27.40
2016,05,07,16,57,29.00
2016,05,07,16,58,17.70
2016,05,07,16,59,22.50
2016,05,07,17,00,24.20
2016,05,07,17,01,19.30
2016,05,07,17,02,27.40
2016,05,07,17,03,19.30
2016,05,07,17,04,16.10
2016,05,07,17,05,27.40
2016,05,07,17,06,20.90
2016,05,07,17,07,19.30
2016,05,07,17,08,22.50
2016,05,07,17,09,20.90
2016,05,07,17,10,32.20
2016,05,07,17,11,22.50
2016,05,07,17,12,22.50
2016,05,07,17,13,16.10
2016,05,07,17,14,17.70
2016,05,07,17,15,14.50
2016,05,07,17,16,27.40
2016,05,07,17,17,17.70
2016,05,07,17,18,19.30
2016,05,07,17,19,24.20
2016,05,07,17,20,17.70
2016,05,07,17,21,19.30
2016,05,07,17,22,19.30
2016,05,07,17,23,17.70
2016,05,07,17,24,22.50
2016,05,07,17,25,17.70
2016,05,07,17,26,17.70
2016,05,07,17,27,19.30
2016,05,07,17,28,24.20
2016,05,07,17,29,27.40
2016,05,07,17,30,17.70
2016,05,07,17,31,27.40
2016,05,07,17,32,19.30
2016,05,07,17,33,27.40
2016,05,07,17,34,20.90
2016,05,07,17,35,14.50
2016,05,07,17,36,16.10
2016,05,07,17,37,16.10
2016,05,07,17,38,17.70
2016,05,07,17,39,16.10
2016,05,07,17,40,25.70
2016,05,07,17,41,17.70
2016,05,07,17,42,19.30
2016,05,07,17,43,17.70
2016,05,07,17,44,25.70
2016,05,07,17,45,20.90
2016,05,07,17,46,17.70
2016,05,07,17,47,20.90
2016,05,07,17,48,25.70
2016,05,07,17,49,19.30
2016,05,07,17,50,24.20
2016,05,07,17,51,14.50
2016,05,07,17,52,20.90
2016,05,07,17,53,14.50
2016,05,07,17,54,17.70
2016,05,07,17,55,16.10
2016,05,07,17,56,12.90
2016,05,07,17,57,22.50
2016,05,07,17,58,17.70
2016,05,07,17,59,27.40
2016,05,07,18,00,24.20
2016,05,07,18,01,27.40
2016,05,07,18,02,25.70
2016,05,07,18,03,12.90
2016,05,07,18,04,22.50
2016,05,07,18,05,27.40
2016,05,07,18,06,17.70
2016,05,07,18,07,16.10
2016,05,07,18,08,22.50
2016,05,07,18,09,17.70
2016,05,07,18,10,19.30
2016,05,07,18,11,19.30
2016,05,07,18,12,12.90
2016,05,07,18,13,20.90
2016,05,07,18,14,20.90
2016,05,07,18,15,20.90
2016,05,07,18,16,17.70
2016,05,07,18,17,19.30
2016,05,07,18,18,14.50
2016,05,07,18,19,16.10
2016,05,07,18,20,29.00
2016,05,07,18,21,25.70
2016,05,07,18,22,32.20
2016,05,07,18,23,40.20
2016,05,07,18,24,33.80
2016,05,07,18,25,27.40
2016,05,07,18,26,12.90
2016,05,07,18,27,24.20
2016,05,07,18,28,25.70
2016,05,07,18,29,24.20
2016,05,07,18,30,29.00
2016,05,07,18,31,30.60
2016,05,07,18,32,17.70
2016,05,07,18,33,17.70
2016,05,07,18,34,30.60
2016,05,07,18,35,27.40
2016,05,07,18,36,30.60
2016,05,07,18,37,35.40
2016,05,07,18,38,40.20
2016,05,07,18,39,37.00
2016,05,07,18,40,32.20
2016,05,07,18,41,24.20
2016,05,07,18,42,29.00
2016,05,07,18,43,20.90
2016,05,07,18,44,33.80
2016,05,07,18,45,25.70
2016,05,07,18,46,25.70
2016,05,07,18,47,29.00
2016,05,07,18,48,30.60
2016,05,07,18,49,32.20
2016,05,07,18,50,20.90
2016,05,07,18,51,30.60
2016,05,07,18,52,27.40
2016,05,07,18,53,24.20